Hourly Weather Cenovo

Today, 16 June, Wednesday

Time Temperature Precipitation Wind Pressure Humidity
00:00 +20°C° 0.1 mm 1 mps 745 mmHg 88%
01:00 +20°C° 0 mm 1 mps 745 mmHg 89%
02:00 +19°C° 0 mm 1 mps 745 mmHg 89%
03:00 +19°C° 0 mm 1 mps 745 mmHg 91%
04:00 +19°C° 0.1 mm 1 mps 745 mmHg 92%
05:00 +20°C° 0.1 mm 1 mps 745 mmHg 92%
06:00 +20°C° 0.1 mm 1 mps 745 mmHg 93%
07:00 +20°C° 0 mm 2 mps 745 mmHg 85%
08:00 +23°C° 0 mm 2 mps 746 mmHg 77%
09:00 +24°C° 0 mm 3 mps 746 mmHg 69%
10:00 +25°C° 0.3 mm 3 mps 746 mmHg 65%
11:00 +26°C° 0.3 mm 4 mps 746 mmHg 60%
12:00 +27°C° 0.3 mm 4 mps 746 mmHg 56%
13:00 +27°C° 0.1 mm 4 mps 747 mmHg 54%
14:00 +27°C° 0.1 mm 4 mps 747 mmHg 52%
15:00 +27°C° 0.1 mm 4 mps 747 mmHg 50%
16:00 +26°C° 0 mm 4 mps 748 mmHg 53%
17:00 +25°C° 0 mm 4 mps 748 mmHg 57%
18:00 +25°C° 0 mm 4 mps 748 mmHg 61%
19:00 +22°C° 0 mm 4 mps 749 mmHg 63%
20:00 +20°C° 0 mm 3 mps 750 mmHg 65%
21:00 +18°C° 0 mm 3 mps 750 mmHg 67%
22:00 +16°C° 0 mm 2 mps 751 mmHg 69%
23:00 +15°C° 0 mm 2 mps 751 mmHg 71%

Tomorrow, 17 June, Thursday

Time Temperature Precipitation Wind Pressure Humidity
00:00 +14°C° 0 mm 2 mps 751 mmHg 73%
01:00 +13°C° 0 mm 2 mps 752 mmHg 73%
02:00 +13°C° 0 mm 2 mps 752 mmHg 73%
03:00 +12°C° 0 mm 2 mps 753 mmHg 72%
04:00 +13°C° 0 mm 2 mps 753 mmHg 71%
05:00 +14°C° 0 mm 2 mps 754 mmHg 69%
06:00 +15°C° 0 mm 2 mps 754 mmHg 68%
07:00 +17°C° 0 mm 2 mps 755 mmHg 59%
08:00 +19°C° 0 mm 3 mps 755 mmHg 51%
09:00 +21°C° 0 mm 3 mps 755 mmHg 42%
10:00 +22°C° 0 mm 3 mps 755 mmHg 39%
11:00 +22°C° 0 mm 4 mps 756 mmHg 35%
12:00 +23°C° 0 mm 4 mps 756 mmHg 32%
13:00 +23°C° 0 mm 4 mps 756 mmHg 33%
14:00 +25°C° 0 mm 4 mps 756 mmHg 34%
15:00 +25°C° 0 mm 4 mps 756 mmHg 36%
16:00 +23°C° 0 mm 4 mps 756 mmHg 40%
17:00 +23°C° 0 mm 4 mps 756 mmHg 44%
18:00 +22°C° 0 mm 3 mps 757 mmHg 49%
19:00 +20°C° 0 mm 3 mps 757 mmHg 56%
20:00 +18°C° 0 mm 2 mps 757 mmHg 64%
21:00 +16°C° 0 mm 2 mps 758 mmHg 71%
22:00 +15°C° 0 mm 1 mps 758 mmHg 72%
23:00 +15°C° 0 mm 1 mps 758 mmHg 72%

Day after tomorrow, 18 June, Friday

Time Temperature Precipitation Wind Pressure Humidity
00:00 +14°C° 0 mm 1 mps 758 mmHg 73%
01:00 +14°C° 0 mm 1 mps 758 mmHg 74%
02:00 +13°C° 0 mm 1 mps 759 mmHg 75%
03:00 +13°C° 0 mm 1 mps 759 mmHg 76%
04:00 +14°C° 0 mm 1 mps 759 mmHg 74%
05:00 +15°C° 0 mm 1 mps 759 mmHg 72%
06:00 +16°C° 0 mm 1 mps 760 mmHg 70%
07:00 +19°C° 0 mm 1 mps 760 mmHg 63%
08:00 +21°C° 0 mm 1 mps 760 mmHg 57%
09:00 +23°C° 0 mm 1 mps 760 mmHg 50%
10:00 +25°C° 0 mm 1 mps 760 mmHg 47%
11:00 +26°C° 0 mm 1 mps 760 mmHg 43%
12:00 +27°C° 0 mm 1 mps 760 mmHg 40%
13:00 +27°C° 0 mm 1 mps 759 mmHg 39%
14:00 +28°C° 0 mm 1 mps 759 mmHg 38%
15:00 +28°C° 0 mm 1 mps 759 mmHg 38%
16:00 +27°C° 0 mm 1 mps 759 mmHg 44%
17:00 +27°C° 0 mm 1 mps 759 mmHg 49%
18:00 +26°C° 0 mm 2 mps 759 mmHg 55%
19:00 +24°C° 0 mm 2 mps 759 mmHg 65%
20:00 +21°C° 0 mm 2 mps 759 mmHg 74%
21:00 +19°C° 0 mm 2 mps 759 mmHg 83%
22:00 +18°C° 0 mm 2 mps 759 mmHg 85%
23:00 +17°C° 0 mm 2 mps 759 mmHg 87%

19 June, Saturday

Time Temperature Precipitation Wind Pressure Humidity
00:00 +16°C° 0 mm 2 mps 759 mmHg 89%
01:00 +16°C° 0 mm 2 mps 760 mmHg 89%
02:00 +16°C° 0 mm 2 mps 760 mmHg 90%
03:00 +15°C° 0 mm 2 mps 760 mmHg 90%
04:00 +16°C° 0 mm 2 mps 760 mmHg 86%
05:00 +17°C° 0 mm 2 mps 760 mmHg 82%
06:00 +18°C° 0 mm 2 mps 761 mmHg 79%
07:00 +20°C° 0 mm 2 mps 761 mmHg 71%
08:00 +23°C° 0 mm 2 mps 761 mmHg 63%
09:00 +25°C° 0 mm 2 mps 761 mmHg 56%
10:00 +26°C° 0 mm 3 mps 760 mmHg 52%
11:00 +27°C° 0 mm 3 mps 760 mmHg 48%
12:00 +28°C° 0 mm 3 mps 760 mmHg 44%
13:00 +28°C° 0 mm 3 mps 760 mmHg 43%
14:00 +28°C° 0 mm 3 mps 759 mmHg 43%
15:00 +29°C° 0 mm 3 mps 759 mmHg 43%
16:00 +28°C° 0 mm 3 mps 759 mmHg 47%
17:00 +27°C° 0 mm 3 mps 759 mmHg 51%
18:00 +27°C° 0 mm 2 mps 758 mmHg 55%
19:00 +25°C° 0 mm 2 mps 759 mmHg 65%
20:00 +23°C° 0 mm 2 mps 759 mmHg 75%
21:00 +19°C° 0 mm 2 mps 759 mmHg 84%
22:00 +19°C° 0 mm 2 mps 759 mmHg 87%
23:00 +18°C° 0 mm 2 mps 759 mmHg 89%

20 June, Sunday

Time Temperature Precipitation Wind Pressure Humidity
00:00 +17°C° 0 mm 2 mps 759 mmHg 92%
01:00 +17°C° 0 mm 2 mps 759 mmHg 93%
02:00 +17°C° 0 mm 2 mps 759 mmHg 94%
03:00 +16°C° 0 mm 2 mps 759 mmHg 95%
04:00 +18°C° 0 mm 1 mps 759 mmHg 91%
05:00 +19°C° 0 mm 1 mps 759 mmHg 87%
06:00 +20°C° 0 mm 1 mps 759 mmHg 83%
07:00 +22°C° 0 mm 1 mps 759 mmHg 75%
08:00 +24°C° 0 mm 1 mps 759 mmHg 66%
09:00 +26°C° 0 mm 1 mps 759 mmHg 58%
10:00 +27°C° 0 mm 1 mps 759 mmHg 54%
11:00 +28°C° 0 mm 2 mps 758 mmHg 49%
12:00 +29°C° 0 mm 2 mps 758 mmHg 44%
13:00 +30°C° 0 mm 2 mps 758 mmHg 43%
14:00 +30°C° 0 mm 2 mps 758 mmHg 42%
15:00 +30°C° 0 mm 2 mps 757 mmHg 41%
16:00 +30°C° 0 mm 2 mps 757 mmHg 45%
17:00 +29°C° 0 mm 2 mps 757 mmHg 50%
18:00 +29°C° 0 mm 2 mps 757 mmHg 54%
19:00 +26°C° 0 mm 2 mps 757 mmHg 64%
20:00 +24°C° 0 mm 2 mps 757 mmHg 73%
21:00 +21°C° 0 mm 2 mps 757 mmHg 83%
22:00 +20°C° 0 mm 2 mps 757 mmHg 86%
23:00 +20°C° 0 mm 1 mps 757 mmHg 89%

21 June, Monday

Time Temperature Precipitation Wind Pressure Humidity
00:00 +20°C° 0 mm 1 mps 757 mmHg 91%
01:00 +19°C° 0 mm 1 mps 757 mmHg 92%
02:00 +19°C° 0 mm 1 mps 757 mmHg 93%
03:00 +19°C° 0 mm 1 mps 757 mmHg 94%
04:00 +20°C° 0 mm 1 mps 757 mmHg 91%
05:00 +20°C° 0 mm 1 mps 757 mmHg 88%
06:00 +21°C° 0 mm 1 mps 757 mmHg 84%
07:00 +23°C° 0 mm 1 mps 757 mmHg 77%
08:00 +25°C° 0 mm 1 mps 757 mmHg 70%
09:00 +27°C° 0 mm 1 mps 757 mmHg 63%
10:00 +28°C° 0 mm 1 mps 756 mmHg 58%
11:00 +29°C° 0 mm 1 mps 756 mmHg 53%
12:00 +30°C° 0 mm 2 mps 756 mmHg 48%
13:00 +30°C° 0 mm 2 mps 756 mmHg 46%
14:00 +31°C° 0 mm 2 mps 756 mmHg 44%
15:00 +31°C° 0 mm 2 mps 755 mmHg 42%
16:00 +30°C° 0 mm 2 mps 755 mmHg 47%
17:00 +30°C° 0 mm 2 mps 755 mmHg 52%
18:00 +29°C° 0 mm 2 mps 755 mmHg 56%
19:00 +27°C° 0 mm 2 mps 755 mmHg 64%
20:00 +25°C° 0 mm 2 mps 755 mmHg 72%
21:00 +23°C° 0 mm 1 mps 755 mmHg 79%
22:00 +23°C° 0 mm 1 mps 755 mmHg 81%
23:00 +22°C° 0 mm 1 mps 755 mmHg 83%
Show more

We Need Your Consent

Meteoprog and our Service Providers may store and access personal data such as cookies, device identifiers or other similar technologies on your device and process such data to personalise content and ads, as well as provide social media features and to analyse the traffic.

  • Store and/or access information on your device

    Cookies, device identifiers or other information can be stored or accessed on your device for the purposes indicated above.

  • Personalised ads and content, ad and content measurement, audience insights, and products development

    Ads and content can be personalised based on a profile. More data can be added to better personalise ads and content. Ad and content performance can be measured. Insights about the audience who saw the ads and content can be derived. Such data can be used to develop or improve user’s experience, systems and software.

By clicking ‘I Agree’ you will allow the use of indicated cookies, device identifiers, web beacons or other similar technologies. Your settings can be changed in the browser on your device.

For certain purposes, legitimate interests may be relied on, rather than consent. You can read more about this in our Privacy and Cookie Policy.